Вернуться в каталог

FENGYUN 1C DEB

АктивенSSO
NORAD 30157·DEBRIS·🇨🇳 China

Запущен May 10, 1999 с Taiyuan Satellite Launch Center

Loading…

Ближайшие Пролёты (ближайшие 24 часа)

TLE

СвежийSource: Space-Track

Эпоха: Sep 14, 2026, 06:03 UTC

1 30157U 99025TN  26257.25222405  .00004277  00000-0  11449-2 0  9996
2 30157  98.7204   7.3112 0035115  87.7403 302.7491 14.48428125 20520

Отслеживайте FENGYUN 1C DEB в реальном времени с AllMySat

Download on the App Store